Regional Weather Roundup
Issued by NWS Portland, ME

Home | Current Version | Previous Version | Text Only | Print | Product List | Glossary On
Versions: 1 2 3 4 5 6 7 8 9 10 11 12 13 14 15 16 17 18 19 20 21 22 23 24 25 26 27 28 29 30 31 32 33 34 35 36 37 38 39 40 41 42 43 44 45 46 47 48 49 50
000
ASUS41 KGYX 120710
RWRGYX
WEATHER ROUNDUP FOR MAINE AND NEW HAMPSHIRE
NATIONAL WEATHER SERVICE GRAY ME
200 AM EST FRI FEB 12 2016

MEZ002-005-006-010-012-015-018-020-021-024-026-027-029-120800-
MAINE

CITY           SKY/WX    TMP DP  RH WIND       PRES   REMARKS
PORTLAND       PTCLDY     4 -10  52 W15       30.00R WCI -14
SANFORD        CLEAR      3 -13  47 W16G24    30.00R WCI -16
BAR HARBOR     CLEAR      5  -4  66 NW7       29.90R
WISCASSET      PTCLDY     2 -11  54 VRB5      30.00R
ROCKLAND       CLEAR      2 -10  57 W14       29.95R WCI -16
FRYEBURG       PTCLDY     2 -15  45 W12G22    29.96R WCI -15
LEWISTONAUBURN PTCLDY     1 -17  42 NW9G21    29.95R
AUGUSTA        PTCLDY     0 -14  51 W10G21    29.95R WCI -16
WATERVILLE     PTCLDY     0 -12  57 NW13G23   29.90R WCI -18
BANGOR         CLEAR      1  -9  62 W5        29.91R
GREENVILLE       N/A     -5 -12  72 NW9G23    29.74R
MILLINOCKET    CLEAR      3 -10  54 W17G30    29.85R WCI -17
HOULTON        CLEAR      3  -6  66 W9        29.78R
PRESQUE ISLE   FLURRIES   4  -1  80 NW5       29.79R
FRENCHVILLE    MIX PCPN  -2 -10  69 NW10      29.72R WCI -19
CARIBOU        CLEAR     -1  -7  75 NW6       29.76R
$$

NHZ002-005-008-009-011-012-014-120800-
NEW HAMPSHIRE

CITY           SKY/WX    TMP DP  RH WIND       PRES   REMARKS
PORTSMOUTH     PTCLDY     5  -9  51 W16G28    30.03R WCI -14
ROCHESTER      CLEAR      3 -13  47 NW15G24   30.00R WCI -16
NASHUA         PTCLDY     7  -8  51 NW16      30.09R WCI -11
MANCHESTER     PTCLDY     7  -8  50 W8        30.07R
CONCORD        PTCLDY     4 -10  52 NW15G23   30.06R WCI -14
LACONIA        PTCLDY     1 -13  51 W8        30.03R
PLYMOUTH       FAIR       1 -11  58 NW10      30.04R WCI -15
BERLIN         CLOUDY    -2 -13  59 VRB6      29.95R
WHITEFIELD     CLEAR     -4 -12  68 CALM      30.00S
JAFFREY        CLEAR      2 -10  57 W10G20    29.99R WCI -14
KEENE          PTCLDY     3 -11  51 CALM      30.08S
LEBANON        PTCLDY     3  -9  57 NW5       30.08R
MT WASHINGTON  BLWGSNOW -24 -24 100 W74G81      N/A  VSB 1/16WCI -70
$$

VTZ005-007-008-120800-
VERMONT

CITY           SKY/WX    TMP DP  RH WIND       PRES   REMARKS
ST JOHNSBURY     N/A      1 -11  57 MISG      30.04S
MONTPELIER     LGT SNOW  -2  -8  76 NW7G16    30.05R
BURLINGTON     CLOUDY     4  -8  57 NW8       30.13S
$$

MAZ007-012-024-CTZ003-RIZ002-NYZ038-NYZ072-120800-
SOUTHERN NEW ENGLAND AND NY

CITY           SKY/WX    TMP DP  RH WIND       PRES   REMARKS
BOSTON         CLEAR      9  -7  48 W21G28    30.10R WCI -11
WORCESTER      CLEAR      3 -10  54 W15G23    30.01R WCI -16
NANTUCKET      CLOUDY    17   3  54 W17G32    30.07R WCI   1
PROVIDENCE     CLEAR     11  -7  44 NW16G22   30.13R WCI  -6
HARTFORD       CLEAR      9  -5  53 NW12G17   30.15R WCI  -6
ALBANY         PTCLDY     6  -5  60 W6        30.18R
NEW YORK CITY  CLEAR     19   1  45 NW20G30   30.23R WCI   3
$$

ANZ081-ANZ082-ANZ150-NHZ014-MEZ023>029-120800-
COASTAL MARINE OBSERVATIONS

STATION/POSITION TIME  TEMP    WIND        PRES    WAVE
                       AIR SEA DIR/SP/G            HT/PER
                 (UTC) (F)     (DEG/KT/KT) (MB)    (FT/S)
MOUNT DESERT ROC 0700   11     300/ 26/ 29 1012.0R
MATINICUS ROCK   0700          300/ 25/ 29 1013.8R
ISLE OF SHOALS   0700    8     280/ 29/ 37 1015.6R
JEFFREYS LEDGE   0604      43                N/A     8/ 6
CASHES LEDGE BUO 0650   16 42  310/ 23/ 27 1013.4R   9/ 7
GEORGES BANK BUO 0650   29 44              1011.7R  17/ 9
$$

.............KEY..............
   WCI - WIND CHILL
   TC  - TEMPERATURE IN CELSIUS
   VSB - VISIBILITY IN MILES
   HX  - HEAT INDEX
   FAIR- INDICATES FEW OR NO CLOUDS BELOW 12,000 FT, WITH NO
         SIGNIFICANT WEATHER AND/OR OBSTRUCTIONS TO VISIBILITY.





USA.gov is the U.S. government's official web portal to all federal, state and local government web resources and services.